Flag for Montserrat Weather past 2 weeks in Brades, Montserrat

Now
84 °F

Scattered clouds.


Feels Like: 90 °F
Forecast: N/A
Wind: 12 mph from East

Location: Vc Bird International Antigua Airport

Current Time: Jul 28, 2014 at 5:00:43 PM

Latest Report: Jul 28, 2014 at 4:00 PM


Visibility: N/A

Pressure: 30.04 "Hg

Humidity: 66%

Dew point: 72 °F

Location of BradesLocation

Historic Weather in Brades — Graph

°F

Brades temperature yesterday

Maximum temperature yesterday: 86 °F (at 9:00 AM)
Minimum temperature yesterday: 81 °F (at 1:00 AM)
Average temperature yesterday: 83 °F

Past Weeks' High & Low Weather Summary

 TemperatureHumidityPressure
High88 °F (Jul 25, 12:00 PM)94% (Jul 14, 6:00 PM)30.12 "Hg (Jul 14, 6:00 PM)
Low75 °F (Jul 14, 6:00 PM)55% (Jul 21, 3:00 PM)29.98 "Hg (Jul 24, 4:00 AM)
Average82 °F73%30.06 "Hg
* Reported Jul 13 4:00 PM — Jul 28 4:00 PM, Brades, Weather by CustomWeather, © 2014

Note: Actual official high and low records may vary slightly from our data, if they occured in-between our weather recording intervals... More about our weather records

Advertising

Brades weather history for previous 24 hours

 ConditionsComfort  
Time TempWeatherWind HumidityBarometerVisibility
4:00 PM
Jul 28
84 °FScattered clouds.12 mph66%30.04 "HgN/A
3:00 PM86 °FScattered clouds.12 mph66%30.04 "HgN/A
2:00 PM86 °FScattered clouds.13 mph62%30.04 "HgN/A
1:00 PM86 °FScattered clouds.12 mph66%30.07 "HgN/A
12:00 PM86 °FScattered clouds.13 mph62%30.07 "HgN/A
11:00 AM86 °FPassing clouds.12 mph62%30.07 "HgN/A
10:00 AM84 °FPartly sunny.12 mph66%30.09 "HgN/A
9:00 AM84 °FScattered clouds.10 mph66%30.09 "HgN/A
8:00 AM82 °FScattered clouds.12 mph70%30.07 "HgN/A
7:00 AM81 °FPassing clouds.8 mph70%30.07 "HgN/A
6:00 AM81 °FScattered clouds.9 mph74%30.07 "HgN/A
5:00 AM81 °FPassing clouds.8 mph74%30.04 "HgN/A
4:00 AM79 °FPassing clouds.7 mph79%30.04 "HgN/A
3:00 AM81 °FPassing clouds.8 mph74%30.04 "HgN/A
2:00 AM81 °FPassing clouds.9 mph74%30.07 "HgN/A
1:00 AM81 °FPassing clouds.8 mph74%30.07 "HgN/A
12:00 AM81 °FPassing clouds.10 mph74%30.09 "HgN/A
11:00 PM
Jul 27
81 °FPassing clouds.6 mph79%30.09 "HgN/A
10:00 PM81 °FPassing clouds.9 mph79%30.09 "HgN/A
9:00 PM81 °FPassing clouds.8 mph79%30.09 "HgN/A
8:00 PM81 °FPassing clouds.9 mph79%30.09 "HgN/A
7:00 PM82 °FPassing clouds.8 mph74%30.07 "HgN/A
6:00 PM82 °FPassing clouds.9 mph70%30.07 "HgN/A
5:00 PM84 °FPassing clouds.10 mph66%30.04 "HgN/A
Weather by CustomWeather, © 2014

See weather overviewHow to use our weather pages